User: anonymous   Login
Location: Dover
(39.1580°N, 75.5250°W)
Time: 07:22:49
(UTC-04:00)
Language:

SeaSat 1 - Orbit

View from above orbital plane
View from above orbital plane
View from above satellite
View from above satellite

Ground track
Ground track

The orbit data is extracted from the following two-line orbital elements,

1 10967U 78064A   15089.85706488  .00000569  00000-0  20897-3 0  9996
2 10967 107.9943 049.2022 0002487 256.7192 103.3675 14.43329514929810
Epoch (UTC): 30 March 2015 20:34:10
Eccentricity: 0.0002487
inclination: 107.9943°
perigee height: 746 km
apogee height: 749 km
right ascension of ascending node: 49.2022°
argument of perigee: 256.7192°
revolutions per day: 14.43329514
mean anomaly at epoch: 103.3675°
orbit number at epoch: 92981

The dashed part of the orbit path shows where the satellite is in the earth's shadow,  

DLR